Weather History for Mazatlan Airport, Mexico

Change the Weather History Date:

Thursday, November 8, 2012

  Actual Average Record
Temperature  
Mean Temperature 76 °F -  
Max Temperature 87 °F 85 °F 91 °F (1996)
Min Temperature 66 °F 64 °F 57 °F (2011)
Cooling Degree Days 12    
Growing Degree Days 26 (Base 50)    
Moisture  
Dew Point 70 °F    
Average Humidity 87    
Maximum Humidity 100    
Minimum Humidity 62    
Precipitation  
Precipitation 0.00 in - - ()
Sea Level Pressure  
Sea Level Pressure 29.89 in    
Wind  
Wind Speed 5 mph ()    
Max Wind Speed 10 mph    
Max Gust Speed -    
Visibility 6.3 miles    
Events Fog    
Averages and records for this station are not official NWS values.
T = Trace of Precipitation, MM = Missing Value Source: Averaged Metar Reports

Daily Weather History Graph

Daily Weather History Graph

Search for Another Location

Airport:

Trip Planner

Search our weather history database for the weather conditions in past years. The results will help you decide how hot, cold, wet, or windy it might be!

Date:

Astronomy

Nov. 08, 2012 Rise Set
Actual Time 6:14 AM MST 5:22 PM MST
Civil Twilight 5:51 AM MST 5:46 PM MST
Nautical Twilight 5:24 AM MST 6:13 PM MST
Astronomical Twilight 4:57 AM MST 6:39 PM MST
Moon 12:51 AM MST (11/8) 1:30 PM MST (11/8)
Length of Visible Light 11h 55m
Length of Day
11h 08m
Waning Crescent, 32% of the Moon is Illuminated
Nov 8
Waning Crescent
Nov 13
New
Nov 20
First Quarter
Nov 28
Full
Dec 6
Last Quarter

Hourly Weather History & Observations

Time (MST) Temp. Heat Index Dew Point Humidity Pressure Visibility Wind Dir Wind Speed Gust Speed Precip Events Conditions
12:28 AM 68.0 °F - 68.0 °F 100% 29.89 in 0.0 mi Calm Calm - N/A Fog Fog
12:42 AM 68.0 °F - 68.0 °F 100% 29.89 in 0.1 mi NE 5.8 mph - N/A Fog Fog
1:42 AM 69.8 °F - 69.8 °F 100% 29.90 in 0.0 mi NNW 5.8 mph - N/A Fog Fog
2:43 AM 69.8 °F - 69.8 °F 100% 29.89 in 0.0 mi NNE 6.9 mph - N/A Fog Fog
3:52 AM 69.8 °F - 69.8 °F 100% 29.89 in 2.0 mi North 6.9 mph - N/A   Partly Cloudy
4:46 AM 69.8 °F - 68.0 °F 94% 29.90 in 3.0 mi NNE 6.9 mph - N/A   Partly Cloudy
5:45 AM 69.8 °F - 68.0 °F 94% 29.90 in 4.0 mi North 8.1 mph - N/A   Mostly Cloudy
6:44 AM 66.2 °F - 64.4 °F 94% 29.92 in 5.0 mi North 8.1 mph - N/A   Mostly Cloudy
7:46 AM 69.8 °F - 66.2 °F 88% 29.94 in 6.0 mi North 6.9 mph - N/A   Mostly Cloudy
8:53 AM 75.2 °F - 71.6 °F 89% 29.95 in 6.0 mi NE 6.9 mph - N/A   Mostly Cloudy
9:40 AM 78.8 °F - 73.4 °F 83% 29.95 in 7.0 mi NE 6.9 mph - N/A   Partly Cloudy
10:55 AM 84.2 °F 89.6 °F 71.6 °F 66% 29.91 in 8.0 mi South 6.9 mph - N/A   Scattered Clouds
11:44 AM 86.0 °F 91.8 °F 71.6 °F 62% 29.89 in 10.0 mi WSW 5.8 mph - N/A   Scattered Clouds
12:40 PM 87.8 °F 95.6 °F 73.4 °F 62% 29.86 in 10.0 mi SSW 8.1 mph - N/A   Partly Cloudy
1:41 PM 86.0 °F 91.8 °F 71.6 °F 62% 29.84 in 10.0 mi SW 9.2 mph - N/A   Clear
2:40 PM 84.2 °F 89.6 °F 71.6 °F 66% 29.82 in 10.0 mi WSW 8.1 mph - N/A   Clear
3:41 PM 82.4 °F 87.2 °F 71.6 °F 70% 29.81 in 10.0 mi WSW 10.4 mph - N/A   Clear
4:44 PM 80.6 °F 85.4 °F 73.4 °F 79% 29.83 in 10.0 mi SW 8.1 mph - N/A   Clear
5:40 PM 75.2 °F - 73.4 °F 94% 29.84 in 9.0 mi WSW 6.9 mph - N/A   Clear
6:42 PM 75.2 °F - 73.4 °F 94% 29.86 in 8.0 mi West 5.8 mph - N/A   Clear
7:41 PM 73.4 °F - 71.6 °F 94% 29.88 in 8.0 mi North 8.1 mph - N/A   Clear
8:41 PM 73.4 °F - 71.6 °F 94% 29.89 in 8.0 mi North 6.9 mph - N/A   Clear
9:52 PM 71.6 °F - 69.8 °F 94% 29.90 in 8.0 mi NNW 8.1 mph - N/A   Clear
10:46 PM 71.6 °F - 69.8 °F 94% 29.91 in 8.0 mi NE 5.8 mph - N/A   Clear
11:42 PM 69.8 °F - 68.0 °F 94% 29.91 in 8.0 mi ENE 5.8 mph - N/A   Clear